When you browse on this site, cookies collect data to enhance your experience and personalize the content and advertising you see.
Visit our Privacy Policy to learn more. By continuing to use the site, you agree to this use of cookies and data.
  • In Österreich
  • Länderverzeichnis
  • Für 7 Tage
  • Wassertemperatur
  • Wetterkarte
  • News
  • Widgets
  • user-avatar
    Anmelden

    Stündliche Wetter Tarsus

    Heute, 20 August, Dienstag

    Zeit Temperatur Niederschläge Wind Luftdruck Luftfeuchtigkeit
    00:00 +26°C° 0 mm 1 m/S 756 mmHg 76%
    01:00 +26°C° 0 mm 1 m/S 755 mmHg 75%
    02:00 +24°C° 0 mm 0 m/S 755 mmHg 75%
    03:00 +23°C° 0 mm 0 m/S 755 mmHg 76%
    04:00 +23°C° 0 mm 0 m/S 755 mmHg 77%
    05:00 +23°C° 0 mm 0 m/S 756 mmHg 79%
    06:00 +25°C° 0 mm 0 m/S 756 mmHg 72%
    07:00 +28°C° 0 mm 1 m/S 756 mmHg 65%
    08:00 +30°C° 0 mm 1 m/S 756 mmHg 58%
    09:00 +32°C° 0 mm 1 m/S 756 mmHg 53%
    10:00 +34°C° 0 mm 2 m/S 756 mmHg 48%
    11:00 +35°C° 0 mm 3 m/S 755 mmHg 43%
    12:00 +35°C° 0 mm 4 m/S 755 mmHg 43%
    13:00 +36°C° 0 mm 4 m/S 755 mmHg 42%
    14:00 +36°C° 0 mm 5 m/S 755 mmHg 41%
    15:00 +35°C° 0 mm 5 m/S 755 mmHg 46%
    16:00 +34°C° 0 mm 5 m/S 755 mmHg 52%
    17:00 +32°C° 0 mm 5 m/S 755 mmHg 57%
    18:00 +30°C° 0.1 mm 4 m/S 755 mmHg 63%
    19:00 +29°C° 0.1 mm 3 m/S 755 mmHg 69%
    20:00 +27°C° 0.1 mm 2 m/S 756 mmHg 75%
    21:00 +27°C° 0.1 mm 2 m/S 756 mmHg 76%
    22:00 +27°C° 0.1 mm 2 m/S 756 mmHg 77%
    23:00 +26°C° 0.1 mm 1 m/S 755 mmHg 78%

    Morgen, 21 August, Mittwoch

    Zeit Temperatur Niederschläge Wind Luftdruck Luftfeuchtigkeit
    00:00 +26°C° 0 mm 2 m/S 755 mmHg 79%
    01:00 +26°C° 0 mm 2 m/S 755 mmHg 80%
    02:00 +26°C° 0 mm 2 m/S 755 mmHg 81%
    03:00 +25°C° 0 mm 2 m/S 755 mmHg 80%
    04:00 +25°C° 0 mm 2 m/S 755 mmHg 80%
    05:00 +25°C° 0 mm 2 m/S 755 mmHg 80%
    06:00 +27°C° 0 mm 2 m/S 755 mmHg 74%
    07:00 +28°C° 0 mm 2 m/S 755 mmHg 69%
    08:00 +30°C° 0 mm 2 m/S 756 mmHg 64%
    09:00 +31°C° 0 mm 2 m/S 755 mmHg 57%
    10:00 +34°C° 0 mm 2 m/S 755 mmHg 51%
    11:00 +36°C° 0 mm 2 m/S 755 mmHg 44%
    12:00 +36°C° 0.1 mm 3 m/S 755 mmHg 44%
    13:00 +36°C° 0.1 mm 4 m/S 755 mmHg 43%
    14:00 +36°C° 0.1 mm 5 m/S 755 mmHg 42%
    15:00 +36°C° 0 mm 5 m/S 754 mmHg 45%
    16:00 +35°C° 0 mm 5 m/S 754 mmHg 47%
    17:00 +34°C° 0 mm 5 m/S 754 mmHg 50%
    18:00 +33°C° 0 mm 4 m/S 755 mmHg 56%
    19:00 +30°C° 0 mm 4 m/S 755 mmHg 61%
    20:00 +29°C° 0 mm 3 m/S 756 mmHg 67%
    21:00 +29°C° 0 mm 2 m/S 756 mmHg 69%
    22:00 +28°C° 0 mm 2 m/S 756 mmHg 70%
    23:00 +28°C° 0 mm 1 m/S 756 mmHg 72%

    übermorgen, 22 August, Donnerstag

    Zeit Temperatur Niederschläge Wind Luftdruck Luftfeuchtigkeit
    00:00 +27°C° 0 mm 2 m/S 756 mmHg 73%
    01:00 +27°C° 0 mm 2 m/S 755 mmHg 75%
    02:00 +27°C° 0 mm 2 m/S 755 mmHg 76%
    03:00 +26°C° 0 mm 2 m/S 755 mmHg 76%
    04:00 +26°C° 0 mm 1 m/S 755 mmHg 77%
    05:00 +26°C° 0 mm 1 m/S 755 mmHg 78%
    06:00 +28°C° 0 mm 1 m/S 755 mmHg 70%
    07:00 +30°C° 0 mm 1 m/S 755 mmHg 63%
    08:00 +31°C° 0 mm 1 m/S 756 mmHg 55%
    09:00 +34°C° 0 mm 2 m/S 755 mmHg 49%
    10:00 +36°C° 0 mm 2 m/S 755 mmHg 43%
    11:00 +37°C° 0 mm 3 m/S 755 mmHg 37%
    12:00 +37°C° 0 mm 4 m/S 755 mmHg 37%
    13:00 +38°C° 0 mm 4 m/S 755 mmHg 38%
    14:00 +39°C° 0 mm 5 m/S 754 mmHg 38%
    15:00 +37°C° 0 mm 5 m/S 754 mmHg 42%
    16:00 +36°C° 0 mm 5 m/S 754 mmHg 45%
    17:00 +35°C° 0 mm 5 m/S 754 mmHg 49%
    18:00 +34°C° 0 mm 4 m/S 754 mmHg 53%
    19:00 +31°C° 0 mm 3 m/S 755 mmHg 58%
    20:00 +30°C° 0 mm 2 m/S 755 mmHg 62%
    21:00 +29°C° 0 mm 2 m/S 755 mmHg 64%
    22:00 +29°C° 0 mm 2 m/S 755 mmHg 67%
    23:00 +28°C° 0 mm 2 m/S 755 mmHg 69%

    23 August, Freitag

    Zeit Temperatur Niederschläge Wind Luftdruck Luftfeuchtigkeit
    00:00 +28°C° 0 mm 2 m/S 755 mmHg 69%
    01:00 +28°C° 0 mm 2 m/S 755 mmHg 69%
    02:00 +28°C° 0 mm 2 m/S 754 mmHg 69%
    03:00 +27°C° 0 mm 1 m/S 754 mmHg 69%
    04:00 +27°C° 0 mm 1 m/S 755 mmHg 70%
    05:00 +27°C° 0 mm 1 m/S 755 mmHg 70%
    06:00 +29°C° 0 mm 1 m/S 755 mmHg 62%
    07:00 +31°C° 0 mm 1 m/S 755 mmHg 53%
    08:00 +33°C° 0 mm 1 m/S 755 mmHg 45%
    09:00 +35°C° 0 mm 1 m/S 755 mmHg 40%
    10:00 +37°C° 0 mm 2 m/S 755 mmHg 35%
    11:00 +39°C° 0 mm 3 m/S 755 mmHg 31%
    12:00 +40°C° 0 mm 4 m/S 754 mmHg 31%
    13:00 +40°C° 0 mm 5 m/S 754 mmHg 31%
    14:00 +41°C° 0 mm 5 m/S 754 mmHg 31%
    15:00 +40°C° 0 mm 5 m/S 753 mmHg 34%
    16:00 +39°C° 0 mm 5 m/S 753 mmHg 38%
    17:00 +37°C° 0 mm 5 m/S 753 mmHg 41%
    18:00 +35°C° 0 mm 4 m/S 754 mmHg 45%
    19:00 +34°C° 0 mm 3 m/S 754 mmHg 50%
    20:00 +31°C° 0 mm 2 m/S 754 mmHg 55%
    21:00 +31°C° 0 mm 2 m/S 754 mmHg 56%
    22:00 +30°C° 0 mm 2 m/S 754 mmHg 57%
    23:00 +29°C° 0 mm 2 m/S 754 mmHg 58%

    24 August, Samstag

    Zeit Temperatur Niederschläge Wind Luftdruck Luftfeuchtigkeit
    00:00 +29°C° 0 mm 2 m/S 754 mmHg 59%
    01:00 +29°C° 0 mm 2 m/S 754 mmHg 60%
    02:00 +28°C° 0 mm 1 m/S 754 mmHg 60%
    03:00 +28°C° 0 mm 1 m/S 754 mmHg 60%
    04:00 +28°C° 0 mm 1 m/S 754 mmHg 60%
    05:00 +28°C° 0 mm 1 m/S 754 mmHg 59%
    06:00 +30°C° 0 mm 1 m/S 754 mmHg 51%
    07:00 +32°C° 0 mm 1 m/S 754 mmHg 42%
    08:00 +35°C° 0 mm 1 m/S 755 mmHg 33%
    09:00 +36°C° 0 mm 1 m/S 755 mmHg 30%
    10:00 +39°C° 0 mm 2 m/S 754 mmHg 27%
    11:00 +40°C° 0 mm 2 m/S 754 mmHg 24%
    12:00 +42°C° 0 mm 3 m/S 754 mmHg 23%
    13:00 +43°C° 0 mm 3 m/S 753 mmHg 22%
    14:00 +43°C° 0 mm 3 m/S 753 mmHg 21%
    15:00 +42°C° 0 mm 4 m/S 753 mmHg 23%
    16:00 +41°C° 0 mm 4 m/S 752 mmHg 26%
    17:00 +40°C° 0 mm 5 m/S 752 mmHg 29%
    18:00 +37°C° 0 mm 4 m/S 752 mmHg 35%
    19:00 +35°C° 0 mm 3 m/S 753 mmHg 41%
    20:00 +32°C° 0 mm 2 m/S 753 mmHg 47%
    21:00 +32°C° 0 mm 2 m/S 753 mmHg 48%
    22:00 +31°C° 0 mm 2 m/S 753 mmHg 49%
    23:00 +31°C° 0 mm 2 m/S 754 mmHg 51%

    25 August, Sonntag

    Zeit Temperatur Niederschläge Wind Luftdruck Luftfeuchtigkeit
    00:00 +30°C° 0 mm 2 m/S 754 mmHg 52%
    01:00 +30°C° 0 mm 2 m/S 754 mmHg 53%
    02:00 +29°C° 0 mm 2 m/S 753 mmHg 54%
    03:00 +29°C° 0 mm 2 m/S 754 mmHg 56%
    04:00 +28°C° 0 mm 2 m/S 754 mmHg 58%
    05:00 +28°C° 0 mm 1 m/S 754 mmHg 60%
    06:00 +30°C° 0 mm 1 m/S 754 mmHg 54%
    07:00 +32°C° 0 mm 1 m/S 754 mmHg 49%
    08:00 +34°C° 0 mm 1 m/S 754 mmHg 44%
    09:00 +37°C° 0 mm 2 m/S 754 mmHg 40%
    10:00 +38°C° 0 mm 2 m/S 754 mmHg 37%
    11:00 +40°C° 0 mm 3 m/S 754 mmHg 33%
    12:00 +41°C° 0 mm 4 m/S 754 mmHg 35%
    13:00 +41°C° 0 mm 4 m/S 754 mmHg 36%
    14:00 +41°C° 0 mm 5 m/S 753 mmHg 37%
    15:00 +40°C° 0 mm 4 m/S 753 mmHg 41%
    16:00 +37°C° 0 mm 4 m/S 753 mmHg 45%
    17:00 +36°C° 0 mm 3 m/S 753 mmHg 49%
    18:00 +34°C° 0 mm 3 m/S 753 mmHg 58%
    19:00 +31°C° 0 mm 2 m/S 754 mmHg 68%
    20:00 +30°C° 0 mm 1 m/S 754 mmHg 78%
    21:00 +29°C° 0 mm 1 m/S 754 mmHg 78%
    22:00 +29°C° 0 mm 1 m/S 754 mmHg 79%
    23:00 +29°C° 0 mm 1 m/S 755 mmHg 80%
    Mehr zeigen